Regional Weather Roundup
Issued by NWS State College, PA

Home | Current Version | Previous Version | Text Only | Print | Product List | Glossary Off
Versions: 1 2 3 4 5 6 7 8 9 10 11 12 13 14 15 16 17 18 19 20 21 22 23 24 25 26 27 28 29 30 31 32 33 34 35 36 37 38 39 40 41 42 43 44 45 46 47 48 49 50

000
ASUS41 KCTP 232310
RWRCTP

REGIONAL WEATHER ROUNDUP
NATIONAL WEATHER SERVICE STATE COLLEGE PA
700 PM EDT WED AUG 23 2017

Note: "fair" indicates few or no clouds below 12,000 feet with no
significant weather and/or obstructions to visibility.

* = STATION THAT DOES NOT REPORT PRECIPITATION /E.G. RAIN...SNOW...ETC/
    THUNDER OR FOG.

PAZ002>004-007>009-013>016-020>023-029>032-240000-
WESTERN PENNSYLVANIA

CITY           SKY/WX    TMP DP  RH WIND       PRES   REMARKS
ERIE           PTSUNNY   71  54  54 W13       29.93S
MEADVILLE      MOSUNNY   68  54  60 W7        29.96S
FRANKLIN*      SUNNY     68  52  56 NW6       29.96S
NEW CASTLE     MOCLDY    71  53  52 NW7       29.96S
BEAVER COUNTY  CLOUDY    70  55  60 W3        29.96R
BUTLER*        CLOUDY    70  55  60 CALM      29.96S
PITTSBURGH INT PTSUNNY   72  53  51 W8        29.95R
PITTSBURGH     MOSUNNY   73  50  44 W9        29.94S
INDIANA*       PTSUNNY   72  55  56 NW7       29.97S
LATROBE        MOSUNNY   72  54  53 W9        29.95S
WASHINGTON CO* SUNNY     72  54  53 W5        29.97R
$$

PAZ004>006-010>012-017>019-024>028-033>037-041-042-045-046-049>053-240000-
CENTRAL PENNSYLVANIA

CITY           SKY/WX    TMP DP  RH WIND       PRES   REMARKS
BRADFORD       MOSUNNY   66  52  60 NW9       29.95R
DUBOIS         CLOUDY    67  52  58 W7        29.94S
CLEARFIELD     MOSUNNY   72  53  51 NW9       29.93S
JOHNSTOWN      SUNNY     69  50  50 W8        29.97R
ALTOONA        SUNNY     71  53  52 NW6       29.94S
STATE COLLEGE  PTCLDY    72  54  53 SW5       29.91S
WILLIAMSPORT   PTCLDY    75  57  53 SW5       29.85S
SELINSGROVE    CLEAR     71  62  73 CALM      29.88S
FT INDIANTOWN  CLEAR     76  61  60 N3        29.87F
CAPITAL CITY   CLEAR     79  49  34 NW7       29.87S
HARRISBURG     PTCLDY    78  51  38 NW8       29.86S
YORK           CLEAR     76  57  51 N5        29.88R
$$

PAZ038>040-043-044-047-048-054-055-060>062-067>071-240000-
EASTERN PENNSYLVANIA

CITY           SKY/WX    TMP DP  RH WIND       PRES   REMARKS
SCRANTON       CLEAR     74  52  46 NW6       29.88S
MOUNT POCONO   PTCLDY    68  53  58 NW6       29.91S
ALLENTOWN      CLEAR     76  51  41 W8        29.86S
QUAKERTOWN*    CLEAR     75  55  50 CALM      29.88R
READING        PTCLDY    76  57  51 NW8       29.86R
LANCASTER      CLEAR     77  57  50 N9        29.87S
COATESVILLE    CLEAR     75  55  50 N7        29.89S
POTTSTOWN      CLEAR     75  54  47 NW5       29.88S
BLUE BELL      CLEAR     73  57  56 NW3       29.87S
DOYLESTOWN     CLEAR     76  55  48 NW6       29.85S
WILLOW GROVE   NOT AVBL
NORTH PHILA    CLEAR     80  55  42 NW8       29.86S
PHILADELPHIA   PTCLDY    80  54  40 NW9       29.85S
$$



USA.gov is the U.S. government's official web portal to all federal, state and local government web resources and services.